| time (UTC) | temp C | wind direction | speed KPH | gust KPH | rain 1hr cm | rain 24hr cm | rain mn cm | humidity % | barometer mb |
| 20260510130826 | 8 | 269 | 11.3 | 0.0 | 0.00 | 0.00 | 0.00 | 57 | 1013.3 |
| 20260510130326 | 8 | 232 | 6.4 | 0.0 | 0.00 | 0.00 | 0.00 | 59 | 1013.3 |
| 20260510124825 | 8 | 234 | 6.4 | 0.0 | 0.00 | 0.00 | 0.00 | 61 | 1013.0 |
| 20260510124325 | 8 | 321 | 16.1 | 0.0 | 0.00 | 0.00 | 0.00 | 62 | 1013.0 |
| 20260510123825 | 7 | 297 | 16.1 | 0.0 | 0.00 | 0.00 | 0.00 | 61 | 1013.0 |
| 20260510123325 | 7 | 282 | 16.1 | 0.0 | 0.00 | 0.00 | 0.00 | 60 | 1012.9 |
| 20260510122824 | 7 | 281 | 12.9 | 0.0 | 0.00 | 0.00 | 0.00 | 60 | 1012.9 |
| 20260510122324 | 7 | 251 | 8.0 | 0.0 | 0.00 | 0.00 | 0.00 | 60 | 1012.8 |
| 20260510121824 | 7 | 258 | 9.7 | 0.0 | 0.00 | 0.00 | 0.00 | 60 | 1012.7 |
| 20260510120823 | 7 | 288 | 6.4 | 0.0 | 0.00 | 0.00 | 0.00 | 62 | 1012.4 |
| 20260510120323 | 7 | 360 | 3.2 | 0.0 | 0.00 | 0.00 | 0.00 | 63 | 1012.3 |
| 20260510115822 | 7 | 298 | 4.8 | 0.0 | 0.00 | 0.00 | 0.00 | 63 | 1012.3 |
| 20260510115322 | 7 | 329 | 8.0 | 0.0 | 0.00 | 0.00 | 0.00 | 64 | 1012.3 |
| 20260510114822 | 7 | 269 | 12.9 | 0.0 | 0.00 | 0.00 | 0.00 | 63 | 1012.2 |
| 20260510114322 | 7 | 283 | 11.3 | 0.0 | 0.00 | 0.00 | 0.00 | 64 | 1012.1 |
| 20260510113822 | 6 | 265 | 11.3 | 0.0 | 0.00 | 0.00 | 0.00 | 65 | 1012.2 |
| 20260510113321 | 6 | 287 | 12.9 | 0.0 | 0.00 | 0.00 | 0.00 | 65 | 1012.0 |
| 20260510112821 | 6 | 193 | 3.2 | 0.0 | 0.00 | 0.00 | 0.00 | 65 | 1011.9 |
| 20260510112320 | 6 | 306 | 14.5 | 0.0 | 0.00 | 0.00 | 0.00 | 65 | 1011.9 |
| 20260510111820 | 6 | 285 | 3.2 | 0.0 | 0.00 | 0.00 | 0.00 | 65 | 1011.8 |
| 20260510111320 | 6 | 269 | 3.2 | 0.0 | 0.00 | 0.00 | 0.00 | 65 | 1011.7 |
| 20260510110820 | 6 | 298 | 3.2 | 0.0 | 0.00 | 0.00 | 0.00 | 66 | 1011.5 |
| 20260510105318 | 6 | 295 | 8.0 | 0.0 | 0.00 | 0.00 | 0.00 | 66 | 1011.3 |
| 20260510104818 | 6 | 298 | 3.2 | 0.0 | 0.00 | 0.00 | 0.00 | 66 | 1011.1 |
| 20260510104317 | 6 | 284 | 4.8 | 0.0 | 0.00 | 0.00 | 0.00 | 66 | 1011.0 |
| 20260510103817 | 6 | 257 | 1.6 | 0.0 | 0.00 | 0.00 | 0.00 | 66 | 1010.9 |
| 20260510103317 | 6 | 259 | 9.7 | 0.0 | 0.00 | 0.00 | 0.00 | 66 | 1010.8 |
| 20260510102817 | 6 | 249 | 3.2 | 0.0 | 0.00 | 0.00 | 0.00 | 66 | 1010.7 |
| 20260510102316 | 6 | 283 | 11.3 | 0.0 | 0.00 | 0.00 | 0.00 | 66 | 1010.5 |
| 20260510101816 | 6 | 303 | 6.4 | 0.0 | 0.00 | 0.00 | 0.00 | 66 | 1010.4 |
| 20260510101316 | 6 | 306 | 8.0 | 0.0 | 0.00 | 0.00 | 0.00 | 67 | 1010.3 |
| 20260510100815 | 6 | 304 | 3.2 | 0.0 | 0.00 | 0.00 | 0.00 | 67 | 1010.2 |
| 20260510100315 | 6 | 293 | 3.2 | 0.0 | 0.00 | 0.00 | 0.00 | 67 | 1010.2 |
| 20260510095815 | 6 | 338 | 4.8 | 0.0 | 0.00 | 0.00 | 0.00 | 67 | 1010.1 |
| 20260510095315 | 6 | 319 | 3.2 | 0.0 | 0.00 | 0.00 | 0.00 | 67 | 1010.0 |
| 20260510094814 | 6 | 295 | 6.4 | 0.0 | 0.00 | 0.00 | 0.00 | 67 | 1009.9 |
| 20260510094314 | 6 | 302 | 4.8 | 0.0 | 0.00 | 0.00 | 0.00 | 67 | 1009.9 |
| 20260510093814 | 6 | 317 | 3.2 | 0.0 | 0.00 | 0.00 | 0.00 | 66 | 1009.7 |
| 20260510092813 | 6 | 301 | 11.3 | 0.0 | 0.00 | 0.00 | 0.00 | 66 | 1009.6 |
| 20260510092313 | 6 | 265 | 3.2 | 0.0 | 0.00 | 0.00 | 0.00 | 66 | 1009.6 |
| 20260510091813 | 6 | 287 | 4.8 | 0.0 | 0.00 | 0.00 | 0.00 | 66 | 1009.4 |
| 20260510091312 | 6 | 277 | 1.6 | 0.0 | 0.00 | 0.00 | 0.00 | 65 | 1009.4 |
| 20260510090812 | 6 | 298 | 4.8 | 0.0 | 0.00 | 0.00 | 0.00 | 65 | 1009.4 |
| 20260510090312 | 6 | 270 | 1.6 | 0.0 | 0.00 | 0.00 | 0.00 | 65 | 1009.3 |
| 20260510085811 | 6 | 265 | 6.4 | 0.0 | 0.00 | 0.00 | 0.00 | 65 | 1009.3 |
| 20260510085311 | 6 | 271 | 1.6 | 0.0 | 0.00 | 0.00 | 0.00 | 65 | 1009.2 |
| 20260510084811 | 6 | 288 | 6.4 | 0.0 | 0.00 | 0.00 | 0.00 | 65 | 1009.1 |
| 20260510084311 | 7 | 292 | 3.2 | 0.0 | 0.00 | 0.00 | 0.00 | 64 | 1009.1 |
| 20260510083810 | 7 | 259 | 9.7 | 0.0 | 0.00 | 0.00 | 0.00 | 64 | 1009.1 |
| 20260510083310 | 7 | 323 | 3.2 | 0.0 | 0.00 | 0.00 | 0.00 | 64 | 1009.0 |
| 20260510082310 | 7 | 278 | 6.4 | 0.0 | 0.00 | 0.00 | 0.00 | 63 | 1009.2 |
| 20260510081809 | 7 | 269 | 11.3 | 0.0 | 0.00 | 0.00 | 0.00 | 63 | 1009.0 |
| 20260510081309 | 7 | 299 | 8.0 | 0.0 | 0.00 | 0.00 | 0.00 | 63 | 1009.0 |
| 20260510075808 | 8 | 293 | 6.4 | 0.0 | 0.00 | 0.00 | 0.00 | 61 | 1009.0 |
| 20260510075308 | 8 | 331 | 3.2 | 0.0 | 0.00 | 0.00 | 0.00 | 61 | 1008.8 |
| 20260510074808 | 8 | 269 | 9.7 | 0.0 | 0.00 | 0.00 | 0.00 | 60 | 1008.6 |
| 20260510074307 | 8 | 292 | 3.2 | 0.0 | 0.00 | 0.00 | 0.00 | 59 | 1008.6 |
| 20260510073307 | 8 | 316 | 4.8 | 0.0 | 0.00 | 0.00 | 0.00 | 58 | 1008.5 |
| 20260510072806 | 9 | 269 | 3.2 | 0.0 | 0.00 | 0.00 | 0.00 | 58 | 1008.5 |
| 20260510072306 | 9 | 347 | 6.4 | 0.0 | 0.00 | 0.00 | 0.00 | 58 | 1008.4 |
| 20260510071806 | 9 | 271 | 9.7 | 0.0 | 0.00 | 0.00 | 0.00 | 58 | 1008.4 |
| 20260510070805 | 9 | 273 | 6.4 | 0.0 | 0.00 | 0.00 | 0.00 | 57 | 1008.2 |
| 20260510065805 | 10 | 311 | 9.7 | 0.0 | 0.00 | 0.00 | 0.00 | 56 | 1008.2 |
| 20260510064804 | 10 | 282 | 6.4 | 0.0 | 0.00 | 0.00 | 0.00 | 57 | 1008.1 |
| 20260510064304 | 10 | 304 | 3.2 | 0.0 | 0.00 | 0.00 | 0.00 | 57 | 1008.0 |
| 20260510063803 | 10 | 218 | 8.0 | 0.0 | 0.00 | 0.00 | 0.00 | 57 | 1008.0 |
| 20260510063303 | 10 | 248 | 8.0 | 0.0 | 0.00 | 0.00 | 0.00 | 58 | 1008.0 |
| 20260510062803 | 10 | 257 | 3.2 | 0.0 | 0.00 | 0.00 | 0.00 | 58 | 1008.0 |
| 20260510062306 | 10 | 230 | 17.7 | 0.0 | 0.00 | 0.00 | 0.00 | 58 | 1008.0 |
| 20260510061302 | 10 | 262 | 1.6 | 0.0 | 0.00 | 0.00 | 0.00 | 58 | 1007.8 |
| 20260510060302 | 10 | 219 | 1.6 | 0.0 | 0.00 | 0.00 | 0.00 | 57 | 1007.7 |
| 20260510055801 | 10 | 304 | 1.6 | 0.0 | 0.00 | 0.00 | 0.00 | 57 | 1007.6 |
| 20260510055301 | 10 | 309 | 4.8 | 0.0 | 0.00 | 0.00 | 0.00 | 57 | 1007.5 |
| 20260510054801 | 10 | 292 | 4.8 | 0.0 | 0.00 | 0.00 | 0.00 | 58 | 1007.3 |
| 20260510054300 | 10 | 270 | 1.6 | 0.0 | 0.00 | 0.00 | 0.00 | 58 | 1007.4 |
| 20260510053800 | 10 | 274 | 3.2 | 0.0 | 0.00 | 0.00 | 0.00 | 57 | 1007.3 |
| 20260510053300 | 10 | 282 | 9.7 | 0.0 | 0.00 | 0.00 | 0.00 | 57 | 1007.2 |
| 20260510052259 | 10 | 286 | 12.9 | 0.0 | 0.00 | 0.00 | 0.00 | 57 | 1007.2 |
| 20260510051759 | 11 | 282 | 11.3 | 0.0 | 0.00 | 0.00 | 0.00 | 57 | 1007.2 |
| 20260510051259 | 11 | 312 | 8.0 | 0.0 | 0.00 | 0.00 | 0.00 | 58 | 1007.3 |
| 20260510045758 | 11 | 278 | 9.7 | 0.0 | 0.00 | 0.00 | 0.00 | 58 | 1006.9 |
| 20260510044757 | 11 | 304 | 4.8 | 0.0 | 0.00 | 0.00 | 0.00 | 59 | 1006.8 |
| 20260510043757 | 11 | 272 | 9.7 | 0.0 | 0.00 | 0.00 | 0.00 | 58 | 1006.7 |
| 20260510042756 | 11 | 299 | 1.6 | 0.0 | 0.00 | 0.00 | 0.00 | 58 | 1006.3 |
| 20260510040755 | 11 | 311 | 8.0 | 0.0 | 0.00 | 0.00 | 0.00 | 59 | 1006.2 |
| 20260510035755 | 11 | 318 | 3.2 | 0.0 | 0.00 | 0.51 | 0.00 | 60 | 1006.0 |
| 20260510035255 | 11 | 308 | 4.8 | 0.0 | 0.00 | 0.51 | 0.00 | 60 | 1006.0 |
| 20260510034754 | 11 | 326 | 9.7 | 0.0 | 0.00 | 0.51 | 0.00 | 60 | 1005.9 |
| 20260510034254 | 11 | 325 | 3.2 | 0.0 | 0.00 | 0.51 | 0.00 | 61 | 1005.9 |
| 20260510033253 | 11 | 315 | 8.0 | 0.0 | 0.00 | 0.51 | 0.00 | 62 | 1005.6 |
| 20260510032253 | 12 | 309 | 8.0 | 0.0 | 0.00 | 0.51 | 0.00 | 64 | 1005.5 |
| 20260510031752 | 12 | 284 | 4.8 | 0.0 | 0.00 | 0.51 | 0.00 | 65 | 1005.8 |
| 20260510030251 | 12 | 273 | 6.4 | 0.0 | 0.00 | 0.51 | 0.00 | 70 | 1005.7 |
| 20260510025751 | 12 | 323 | 4.8 | 0.0 | 0.00 | 0.51 | 0.00 | 72 | 1005.7 |
| 20260510024751 | 12 | 287 | 6.4 | 0.0 | 0.00 | 0.51 | 0.00 | 81 | 1005.6 |
| 20260510024250 | 12 | 266 | 3.2 | 0.0 | 0.00 | 0.51 | 0.00 | 82 | 1005.6 |
| 20260510023750 | 12 | 290 | 4.8 | 0.0 | 0.00 | 0.51 | 0.00 | 82 | 1005.5 |
| 20260510023250 | 12 | 236 | 3.2 | 0.0 | 0.00 | 0.51 | 0.00 | 82 | 1005.3 |
| 20260510022749 | 12 | 223 | 6.4 | 0.0 | 0.00 | 0.51 | 0.00 | 82 | 1005.2 |
| 20260510022249 | 12 | 281 | 6.4 | 0.0 | 0.00 | 0.51 | 0.00 | 82 | 1005.2 |
| 20260510021749 | 12 | 230 | 3.2 | 0.0 | 0.00 | 0.51 | 0.00 | 82 | 1005.0 |
| 20260510021249 | 12 | 215 | 6.4 | 0.0 | 0.00 | 0.51 | 0.00 | 82 | 1005.0 |
| 20260510020748 | 12 | 229 | 3.2 | 0.0 | 0.00 | 0.51 | 0.00 | 82 | 1004.8 |
| 20260510020248 | 11 | 240 | 4.8 | 0.0 | 0.00 | 0.51 | 0.00 | 82 | 1004.8 |
| 20260510015748 | 11 | 209 | 3.2 | 0.0 | 0.00 | 0.51 | 0.00 | 82 | 1004.6 |
| 20260510015247 | 11 | 236 | 3.2 | 0.0 | 0.00 | 0.51 | 0.00 | 82 | 1004.5 |
| 20260510014747 | 11 | 180 | 3.2 | 0.0 | 0.00 | 0.51 | 0.00 | 82 | 1004.3 |
| 20260510014247 | 11 | 232 | 1.6 | 0.0 | 0.00 | 0.51 | 0.00 | 82 | 1004.2 |
| 20260510013747 | 11 | 225 | 3.2 | 0.0 | 0.00 | 0.51 | 0.00 | 82 | 1004.2 |
| 20260510013246 | 11 | 219 | 3.2 | 0.0 | 0.00 | 0.51 | 0.00 | 82 | 1004.0 |
| 20260510012746 | 11 | 221 | 3.2 | 0.0 | 0.00 | 0.51 | 0.00 | 82 | 1003.9 |
| 20260510012246 | 11 | 200 | 0.0 | 0.0 | 0.00 | 0.51 | 0.00 | 81 | 1003.8 |
| 20260510011746 | 11 | 223 | 1.6 | 0.0 | 0.00 | 0.51 | 0.00 | 81 | 1003.8 |
| 20260510011245 | 11 | 191 | 3.2 | 0.0 | 0.00 | 0.51 | 0.00 | 81 | 1003.6 |
| 20260510010745 | 12 | 167 | 1.6 | 0.0 | 0.00 | 0.51 | 0.00 | 81 | 1003.6 |
| 20260510010245 | 12 | 176 | 1.6 | 0.0 | 0.00 | 0.51 | 0.00 | 80 | 1003.6 |
| 20260510005744 | 12 | 190 | 1.6 | 0.0 | 0.00 | 0.51 | 0.00 | 80 | 1003.5 |
| 20260510005244 | 12 | 205 | 1.6 | 0.0 | 0.00 | 0.51 | 0.00 | 80 | 1003.3 |
| 20260510004744 | 12 | 228 | 1.6 | 0.0 | 0.00 | 0.51 | 0.00 | 80 | 1003.1 |
| 20260510004243 | 12 | 186 | 3.2 | 0.0 | 0.00 | 0.51 | 0.00 | 80 | 1003.0 |
| 20260510003743 | 12 | 193 | 1.6 | 0.0 | 0.00 | 0.51 | 0.00 | 79 | 1003.2 |
| 20260510003243 | 12 | 207 | 1.6 | 0.0 | 0.00 | 0.51 | 0.00 | 79 | 1003.1 |
| 20260510002743 | 12 | 185 | 3.2 | 0.0 | 0.00 | 0.51 | 0.00 | 78 | 1003.0 |
| 20260510002242 | 12 | 192 | 1.6 | 0.0 | 0.00 | 0.51 | 0.00 | 78 | 1002.9 |
| 20260510001742 | 12 | 193 | 4.8 | 0.0 | 0.00 | 0.51 | 0.00 | 77 | 1002.8 |
| 20260510001242 | 12 | 180 | 3.2 | 0.0 | 0.00 | 0.51 | 0.00 | 77 | 1002.8 |
| 20260510000241 | 12 | 224 | 4.8 | 0.0 | 0.00 | 0.51 | 0.00 | 76 | 1002.7 |
| 20260509235741 | 12 | 191 | 4.8 | 0.0 | 0.00 | 0.51 | 0.00 | 76 | 1002.6 |
| 20260509235240 | 12 | 186 | 3.2 | 0.0 | 0.00 | 0.51 | 0.00 | 76 | 1002.4 |
| 20260509234740 | 12 | 196 | 8.0 | 0.0 | 0.00 | 0.51 | 0.00 | 75 | 1002.4 |
| 20260509234240 | 12 | 214 | 12.9 | 0.0 | 0.00 | 0.51 | 0.00 | 75 | 1002.2 |
| 20260509233740 | 12 | 183 | 3.2 | 0.0 | 0.00 | 0.51 | 0.00 | 76 | 1002.1 |
| 20260509233240 | 12 | 193 | 11.3 | 0.0 | 0.00 | 0.51 | 0.00 | 76 | 1002.0 |
| 20260509232739 | 12 | 184 | 4.8 | 0.0 | 0.00 | 0.51 | 0.00 | 77 | 1001.9 |
| 20260509232239 | 12 | 219 | 9.7 | 0.0 | 0.00 | 0.51 | 0.00 | 79 | 1001.8 |
| 20260509231739 | 12 | 194 | 9.7 | 0.0 | 0.00 | 0.51 | 0.00 | 81 | 1001.7 |
| 20260509231238 | 12 | 206 | 4.8 | 0.0 | 0.00 | 0.51 | 0.00 | 83 | 1001.6 |
| 20260509230738 | 12 | 233 | 8.0 | 0.0 | 0.00 | 0.51 | 0.00 | 84 | 1001.7 |
| 20260509230238 | 12 | 177 | 3.2 | 0.0 | 0.00 | 0.51 | 0.00 | 85 | 1001.6 |
| 20260509225737 | 11 | 174 | 4.8 | 0.0 | 0.00 | 0.51 | 0.00 | 85 | 1001.6 |
| 20260509225237 | 11 | 202 | 4.8 | 0.0 | 0.00 | 0.51 | 0.00 | 85 | 1001.6 |
| 20260509224737 | 11 | 192 | 9.7 | 0.0 | 0.00 | 0.51 | 0.00 | 85 | 1001.7 |
| 20260509223736 | 11 | 198 | 11.3 | 0.0 | 0.10 | 0.51 | 0.00 | 85 | 1001.8 |
| 20260509222736 | 11 | 189 | 1.6 | 0.0 | 0.30 | 0.51 | 0.00 | 85 | 1001.8 |
| 20260509222236 | 11 | 134 | 11.3 | 0.0 | 0.30 | 0.48 | 0.00 | 85 | 1002.1 |
| 20260509221735 | 11 | 144 | 6.4 | 0.0 | 0.89 | 0.46 | 0.00 | 85 | 1001.9 |
| 20260509221235 | 11 | 173 | 9.7 | 0.0 | 1.40 | 0.30 | 0.00 | 83 | 1002.7 |
| 20260509220735 | 11 | 174 | 1.6 | 0.0 | 1.37 | 0.25 | 0.00 | 82 | 1002.7 |
| 20260509220234 | 10 | 173 | 1.6 | 0.0 | 0.61 | 0.20 | 0.00 | 81 | 1002.5 |
| 20260509215734 | 10 | 145 | 3.2 | 0.0 | 0.00 | 0.15 | 0.00 | 81 | 1002.2 |
| 20260509215234 | 10 | 71 | 1.6 | 0.0 | 0.00 | 0.15 | 0.00 | 80 | 1002.3 |
| 20260509214734 | 10 | 71 | 0.0 | 0.0 | 0.00 | 0.15 | 0.00 | 80 | 1002.2 |
| 20260509214234 | 10 | 57 | 0.0 | 0.0 | 0.00 | 0.15 | 0.00 | 79 | 1002.2 |
| 20260509213733 | 10 | 27 | 0.0 | 0.0 | 0.00 | 0.15 | 0.00 | 79 | 1002.4 |
| 20260509212732 | 10 | 38 | 0.0 | 0.0 | 0.00 | 0.15 | 0.00 | 79 | 1002.5 |
| 20260509212232 | 10 | 52 | 1.6 | 0.0 | 0.00 | 0.15 | 0.00 | 79 | 1002.5 |
| 20260509211732 | 10 | 130 | 1.6 | 0.0 | 0.00 | 0.15 | 0.00 | 79 | 1002.6 |
| 20260509211232 | 10 | 61 | 0.0 | 0.0 | 0.00 | 0.15 | 0.00 | 79 | 1002.5 |
| 20260509210731 | 10 | 113 | 3.2 | 0.0 | 0.00 | 0.15 | 0.00 | 79 | 1002.3 |
| 20260509210231 | 10 | 119 | 4.8 | 0.0 | 0.00 | 0.15 | 0.00 | 79 | 1002.3 |
| 20260509205731 | 10 | 147 | 6.4 | 0.0 | 0.00 | 0.15 | 0.00 | 79 | 1002.2 |
| 20260509205230 | 10 | 120 | 3.2 | 0.0 | 0.00 | 0.15 | 0.00 | 79 | 1002.1 |
| 20260509204730 | 10 | 105 | 1.6 | 0.0 | 0.00 | 0.15 | 0.00 | 79 | 1002.2 |
| 20260509204230 | 10 | 142 | 1.6 | 0.0 | 0.10 | 0.15 | 0.00 | 79 | 1002.5 |
| 20260509203730 | 10 | 135 | 1.6 | 0.0 | 0.13 | 0.15 | 0.00 | 80 | 1002.6 |
| 20260509203229 | 10 | 90 | 1.6 | 0.0 | 0.23 | 0.15 | 0.00 | 80 | 1002.6 |
| 20260509202729 | 9 | 111 | 3.2 | 0.0 | 1.07 | 0.15 | 0.00 | 80 | 1002.5 |
| 20260509202229 | 9 | 143 | 4.8 | 0.0 | 0.00 | 0.00 | 0.00 | 80 | 1002.7 |
| 20260509201728 | 9 | 134 | 4.8 | 0.0 | 0.00 | 0.00 | 0.00 | 80 | 1002.9 |
| 20260509201228 | 9 | 123 | 1.6 | 0.0 | 0.00 | 0.00 | 0.00 | 79 | 1003.0 |
| 20260509200728 | 9 | 135 | 3.2 | 0.0 | 0.00 | 0.00 | 0.00 | 79 | 1002.9 |
| 20260509200228 | 9 | 87 | 0.0 | 0.0 | 0.00 | 0.00 | 0.00 | 79 | 1002.8 |
| 20260509195727 | 9 | 120 | 3.2 | 0.0 | 0.00 | 0.00 | 0.00 | 79 | 1003.0 |
| 20260509195227 | 9 | 85 | 0.0 | 0.0 | 0.00 | 0.00 | 0.00 | 79 | 1003.1 |
| 20260509194727 | 9 | 64 | 1.6 | 0.0 | 0.00 | 0.00 | 0.00 | 78 | 1003.2 |
| 20260509194226 | 10 | 132 | 4.8 | 0.0 | 0.00 | 0.00 | 0.00 | 78 | 1003.2 |
| 20260509193726 | 10 | 136 | 6.4 | 0.0 | 0.00 | 0.00 | 0.00 | 79 | 1003.2 |
| 20260509193226 | 10 | 119 | 4.8 | 0.0 | 0.00 | 0.00 | 0.00 | 79 | 1003.3 |
| 20260509192726 | 9 | 153 | 0.0 | 0.0 | 0.00 | 0.00 | 0.00 | 78 | 1003.4 |
| 20260509192225 | 9 | 126 | 3.2 | 0.0 | 0.00 | 0.00 | 0.00 | 78 | 1003.5 |
| 20260509191725 | 9 | 158 | 1.6 | 0.0 | 0.00 | 0.00 | 0.00 | 77 | 1003.6 |
| 20260509191225 | 10 | 136 | 12.9 | 0.0 | 0.00 | 0.00 | 0.00 | 77 | 1003.6 |
| 20260509190724 | 10 | 104 | 9.7 | 0.0 | 0.00 | 0.00 | 0.00 | 77 | 1003.6 |
| 20260509190224 | 10 | 147 | 6.4 | 0.0 | 0.00 | 0.00 | 0.00 | 76 | 1003.5 |
| 20260509185724 | 10 | 134 | 6.4 | 0.0 | 0.00 | 0.00 | 0.00 | 75 | 1003.5 |
| 20260509185224 | 11 | 142 | 9.7 | 0.0 | 0.00 | 0.00 | 0.00 | 75 | 1003.6 |
| 20260509184223 | 11 | 64 | 1.6 | 0.0 | 0.00 | 0.00 | 0.00 | 74 | 1003.7 |
| 20260509182722 | 12 | 119 | 4.8 | 0.0 | 0.00 | 0.00 | 0.00 | 72 | 1003.7 |
| 20260509182222 | 12 | 139 | 12.9 | 0.0 | 0.00 | 0.00 | 0.00 | 73 | 1003.6 |
| 20260509181722 | 12 | 90 | 9.7 | 0.0 | 0.00 | 0.00 | 0.00 | 72 | 1003.8 |
| 20260509175721 | 12 | 103 | 4.8 | 0.0 | 0.00 | 0.00 | 0.00 | 74 | 1004.0 |
| 20260509175220 | 12 | 132 | 4.8 | 0.0 | 0.00 | 0.00 | 0.00 | 73 | 1004.1 |
| 20260509174220 | 13 | 142 | 4.8 | 0.0 | 0.00 | 0.00 | 0.00 | 71 | 1004.3 |
| 20260509173219 | 13 | 102 | 1.6 | 0.0 | 0.00 | 0.00 | 0.00 | 71 | 1004.4 |
| 20260509172719 | 13 | 88 | 4.8 | 0.0 | 0.00 | 0.00 | 0.00 | 71 | 1004.6 |
| 20260509171218 | 12 | 94 | 3.2 | 0.0 | 0.00 | 0.00 | 0.00 | 71 | 1004.8 |
| 20260509165717 | 12 | 92 | 4.8 | 0.0 | 0.00 | 0.00 | 0.00 | 72 | 1004.8 |
| 20260509163716 | 12 | 52 | 3.2 | 0.0 | 0.00 | 0.00 | 0.00 | 74 | 1004.9 |
| 20260509161215 | 11 | 36 | 1.6 | 0.0 | 0.00 | 0.00 | 0.00 | 72 | 1005.4 |
| 20260509155214 | 11 | 123 | 4.8 | 0.0 | 0.00 | 0.00 | 0.00 | 76 | 1005.6 |
| 20260509154713 | 10 | 136 | 1.6 | 0.0 | 0.00 | 0.00 | 0.00 | 76 | 1005.7 |
| 20260509154213 | 10 | 101 | 3.2 | 0.0 | 0.00 | 0.00 | 0.00 | 76 | 1005.7 |
| 20260509153713 | 10 | 57 | 0.0 | 0.0 | 0.00 | 0.00 | 0.00 | 75 | 1005.8 |
| 20260509153212 | 10 | 355 | 0.0 | 0.0 | 0.00 | 0.00 | 0.00 | 74 | 1005.8 |
| 20260509152212 | 10 | 103 | 4.8 | 0.0 | 0.00 | 0.00 | 0.00 | 74 | 1005.8 |
| 20260509150211 | 10 | 126 | 1.6 | 0.0 | 0.00 | 0.00 | 0.00 | 74 | 1005.8 |
| 20260509145710 | 10 | 51 | 0.0 | 0.0 | 0.00 | 0.00 | 0.00 | 74 | 1005.9 |
| 20260509144710 | 9 | 88 | 3.2 | 0.0 | 0.00 | 0.00 | 0.00 | 74 | 1006.1 |
| 20260509143709 | 10 | 93 | 3.2 | 0.0 | 0.00 | 0.00 | 0.00 | 73 | 1006.2 |
| 20260509143209 | 10 | 86 | 3.2 | 0.0 | 0.00 | 0.00 | 0.00 | 72 | 1006.2 |
| 20260509142709 | 10 | 85 | 1.6 | 0.0 | 0.00 | 0.00 | 0.00 | 72 | 1006.2 |
| 20260509142208 | 10 | 80 | 1.6 | 0.0 | 0.00 | 0.00 | 0.00 | 72 | 1006.2 |
| 20260509141708 | 10 | 74 | 1.6 | 0.0 | 0.00 | 0.00 | 0.00 | 71 | 1006.3 |
| 20260509140707 | 10 | 163 | 0.0 | 0.0 | 0.00 | 0.00 | 0.00 | 72 | 1006.3 |
| 20260509140207 | 10 | 122 | 1.6 | 0.0 | 0.00 | 0.00 | 0.00 | 73 | 1006.3 |
| 20260509134706 | 10 | 152 | 6.4 | 0.0 | 0.00 | 0.00 | 0.00 | 71 | 1006.4 |
| 20260509134206 | 10 | 151 | 4.8 | 0.0 | 0.00 | 0.00 | 0.00 | 72 | 1006.5 |
| 20260509133706 | 10 | 137 | 1.6 | 0.0 | 0.00 | 0.00 | 0.00 | 72 | 1006.4 |
| 20260509133205 | 10 | 133 | 3.2 | 0.0 | 0.00 | 0.00 | 0.00 | 72 | 1006.5 |
| 20260509132205 | 9 | 94 | 1.6 | 0.0 | 0.00 | 0.00 | 0.00 | 72 | 1006.6 |
| 20260509131705 | 9 | 98 | 0.0 | 0.0 | 0.00 | 0.00 | 0.00 | 72 | 1006.6 |
| 20260509131204 | 9 | 93 | 3.2 | 0.0 | 0.00 | 0.00 | 0.00 | 73 | 1006.6 |